GW0518 Weather Reports


Display with metric or nautical units.
time (UTC)temp
F
wind
direction
speed
MPH
gust
MPH
rain 1hr
in
rain 24hr
in
rain mn
in
humidity
%
barometer
mb
20260502190132 46 344 5.0 12.0 0.00 0.15 0.00 63 1013.9
20260502185632 46 341 5.0 12.0 0.00 0.15 0.00 64 1013.9
20260502185132 46 344 5.0 12.0 0.00 0.15 0.00 65 1013.9
20260502184633 46 328 4.0 12.0 0.00 0.15 0.00 66 1013.8
20260502184132 46 339 3.0 8.0 0.00 0.15 0.00 64 1013.9
20260502183632 46 301 3.0 8.0 0.00 0.15 0.00 64 1013.9
20260502183350 46 269 4.0 8.0 0.00 0.15 0.00 63 1013.9
20260502182855 46 305 4.0 8.0 0.00 0.15 0.00 62 1013.9
20260502182132 46 355 4.0 10.0 0.00 0.15 0.00 62 1013.9
20260502181632 46 288 4.0 10.0 0.00 0.15 0.00 62 1013.9
20260502181133 46 300 4.0 11.0 0.00 0.15 0.00 60 1013.8
20260502180632 46 301 4.0 11.0 0.00 0.15 0.00 58 1013.8
20260502180132 46 309 4.0 10.0 0.00 0.15 0.00 58 1013.7
20260502170359 46 274 3.0 9.0 0.00 0.15 0.00 60 1013.7
20260502164129 46 244 3.0 10.0 0.00 0.15 0.00 63 1013.8
20260502163629 45 294 3.0 10.0 0.00 0.15 0.00 62 1013.9
20260502163129 45 269 4.0 13.0 0.00 0.15 0.00 60 1014.0
20260502162630 45 297 5.0 13.0 0.00 0.15 0.00 60 1013.9
20260502162128 45 272 4.0 12.0 0.00 0.15 0.00 59 1014.1
20260502161629 45 294 4.0 10.0 0.00 0.15 0.00 59 1014.0
20260502161129 45 334 6.0 14.0 0.00 0.15 0.00 59 1014.0
20260502160629 45 346 5.0 14.0 0.00 0.15 0.00 59 1014.0
20260502160128 46 293 4.0 13.0 0.00 0.15 0.00 59 1014.0
20260502152128 46 290 5.0 14.0 0.00 0.15 0.00 62 1013.9
20260502151852 46 284 5.0 16.0 0.00 0.15 0.00 66 1014.0
20260502151129 46 295 5.0 16.0 0.00 0.15 0.00 66 1014.1
20260502150629 46 258 6.0 15.0 0.00 0.15 0.00 65 1014.1
20260502150129 46 355 7.0 16.0 0.00 0.15 0.00 65 1014.2
20260502140129 43 236 4.0 13.0 0.00 0.15 0.00 76 1014.6
20260502130629 41 292 5.0 13.0 0.00 0.15 0.00 84 1015.0
20260502130128 41 297 6.0 13.0 0.00 0.15 0.00 86 1015.1
20260502123351 38 276 6.0 12.0 0.00 0.15 0.00 91 1014.9
20260502122628 38 305 6.0 14.0 0.00 0.15 0.00 91 1014.9
20260502122128 38 294 5.0 14.0 0.00 0.15 0.00 91 1015.0
20260502121629 38 275 4.0 13.0 0.00 0.15 0.00 92 1014.9
20260502121129 38 288 6.0 13.0 0.00 0.15 0.00 92 1014.9
20260502120855 38 313 7.0 13.0 0.00 0.15 0.00 93 1014.9
20260502120129 38 313 6.0 12.0 0.00 0.15 0.00 93 1015.0
20260502115129 37 265 4.0 12.0 0.00 0.15 0.00 94 1015.0
20260502114629 37 294 5.0 12.0 0.00 0.15 0.00 94 1015.0
20260502114129 37 326 5.0 13.0 0.00 0.15 0.00 94 1014.9
20260502113629 37 304 4.0 13.0 0.00 0.15 0.00 94 1015.0
20260502113130 37 313 4.0 10.0 0.00 0.15 0.00 94 1015.0
20260502112628 36 287 4.0 10.0 0.00 0.15 0.00 94 1014.9
20260502112129 36 355 3.0 9.0 0.00 0.15 0.00 94 1014.7
20260502111629 36 333 3.0 9.0 0.00 0.15 0.00 94 1014.7
20260502111129 36 286 4.0 13.0 0.00 0.15 0.00 94 1014.7
20260502110629 36 309 4.0 13.0 0.00 0.15 0.00 94 1014.6
20260502110128 36 298 4.0 11.0 0.00 0.15 0.00 94 1014.6
20260502105629 36 295 4.0 11.0 0.00 0.15 0.00 94 1014.6
20260502105129 37 268 4.0 12.0 0.00 0.15 0.00 95 1014.4
20260502104629 37 292 4.0 12.0 0.00 0.15 0.00 95 1014.3
20260502104129 37 316 3.0 11.0 0.00 0.15 0.00 95 1014.3
20260502103629 37 320 2.0 9.0 0.00 0.15 0.00 95 1014.3
20260502103128 38 269 2.0 7.0 0.00 0.15 0.00 95 1014.3
20260502102629 38 273 2.0 8.0 0.00 0.15 0.00 95 1014.1
20260502102356 38 302 2.0 8.0 0.00 0.15 0.00 95 1014.1
20260502101629 38 268 2.0 11.0 0.00 0.15 0.00 95 1014.1
20260502101129 38 292 2.0 11.0 0.00 0.15 0.00 95 1014.1
20260502100629 38 250 2.0 7.0 0.00 0.15 0.00 95 1014.1
20260502100129 38 250 2.0 7.0 0.00 0.15 0.00 95 1014.0
20260502091129 38 304 1.0 8.0 0.00 0.15 0.00 95 1013.4
20260502090629 38 267 1.0 4.0 0.00 0.15 0.00 95 1013.3
20260502090354 38 267 2.0 6.0 0.00 0.15 0.00 95 1013.3
20260502071129 39 53 1.0 3.0 0.00 0.15 0.00 95 1012.9
20260502070629 39 53 1.0 4.0 0.00 0.15 0.00 95 1013.0
20260502070130 39 53 1.0 4.0 0.00 0.15 0.00 95 1013.0
20260502065628 39 55 1.0 5.0 0.00 0.15 0.00 95 1013.0
20260502065350 39 55 1.0 5.0 0.00 0.15 0.00 95 1013.0
20260502064629 39 55 2.0 4.0 0.00 0.15 0.00 95 1013.2
20260502064129 39 55 2.0 4.0 0.00 0.15 0.00 95 1013.1
20260502063629 38 55 2.0 4.0 0.00 0.15 0.00 95 1013.1
20260502063129 38 55 1.0 4.0 0.00 0.15 0.00 95 1013.0
20260502062848 38 55 0.0 2.0 0.00 0.15 0.00 94 1013.2
20260502061631 38 55 0.0 0.0 0.00 0.15 0.00 94 1012.9
20260502061129 38 55 0.0 0.0 0.00 0.15 0.00 94 1012.7
20260502060629 39 55 0.0 0.0 0.00 0.15 0.00 94 1012.8
20260502055630 39 55 0.0 0.0 0.00 0.15 0.00 94 1012.8
20260502055128 39 55 0.0 0.0 0.00 0.15 0.00 94 1012.9
20260502054629 39 55 0.0 0.0 0.00 0.15 0.00 95 1012.7
20260502054129 39 55 0.0 0.0 0.00 0.15 0.00 94 1013.0
20260502053628 39 55 0.0 0.0 0.00 0.15 0.00 94 1013.1
20260502053129 39 55 0.0 0.0 0.00 0.15 0.00 94 1013.1
20260502052628 39 55 0.0 0.0 0.00 0.15 0.00 94 1013.2
20260502052128 39 55 0.0 0.0 0.00 0.15 0.00 94 1013.3
20260502051629 39 55 0.0 0.0 0.00 0.15 0.00 94 1013.4
20260502051128 39 55 0.0 0.0 0.00 0.15 0.00 94 1013.4
20260502050630 39 55 0.0 0.0 0.00 0.15 0.00 94 1013.4
20260502050129 39 55 0.0 0.0 0.00 0.15 0.00 94 1013.4
20260502045628 39 55 0.0 0.0 0.00 0.15 0.00 94 1013.4
20260502045129 39 55 0.0 0.0 0.01 0.15 0.00 94 1013.3
20260502044628 39 55 0.0 0.0 0.01 0.15 0.00 94 1013.3
20260502044129 39 55 0.0 0.0 0.01 0.15 0.00 94 1013.3
20260502043628 39 55 0.0 0.0 0.01 0.15 0.00 94 1013.2
20260502043129 39 55 0.0 0.0 0.01 0.15 0.00 94 1013.3
20260502042633 39 55 0.0 0.0 0.01 0.15 0.00 94 1013.3
20260502042130 39 55 0.0 0.0 0.01 0.15 0.00 94 1013.3
20260502041628 39 55 0.0 0.0 0.01 0.15 0.00 94 1013.3
20260502041353 39 55 0.0 0.0 0.01 0.15 0.00 94 1013.3
20260502040855 39 55 0.0 0.0 0.01 0.15 0.00 94 1013.3
20260502040540 39 55 0.0 0.0 0.01 0.15 0.00 94 1013.3
20260502035628 39 55 0.0 0.0 0.01 0.15 0.15 94 1013.4
20260502035129 39 55 0.0 0.0 0.00 0.14 0.14 94 1013.3
20260502034629 39 55 0.0 0.0 0.00 0.14 0.14 94 1013.3
20260502034128 39 55 0.0 0.0 0.00 0.14 0.14 94 1013.2
20260502033629 39 55 0.0 0.0 0.00 0.14 0.14 94 1013.1
20260502033353 39 55 0.0 0.0 0.00 0.14 0.14 94 1013.1
20260502032630 39 55 0.0 1.0 0.00 0.14 0.14 94 1013.2
20260502032129 39 55 0.0 2.0 0.01 0.14 0.14 94 1013.2
20260502031628 39 55 0.0 2.0 0.01 0.14 0.14 94 1013.1
20260502031129 39 55 1.0 4.0 0.01 0.14 0.14 94 1013.1
20260502030628 39 55 2.0 5.0 0.01 0.14 0.14 94 1013.1
20260502030129 39 55 2.0 5.0 0.01 0.14 0.14 94 1013.0
20260502025628 39 55 2.0 4.0 0.01 0.14 0.14 94 1013.1
20260502025129 39 55 2.0 5.0 0.01 0.14 0.14 94 1013.1
20260502024629 39 55 3.0 5.0 0.02 0.14 0.14 94 1013.0
20260502024128 39 55 3.0 4.0 0.02 0.14 0.14 94 1013.1
20260502023629 39 55 2.0 4.0 0.02 0.14 0.14 94 1013.1
20260502023129 39 55 2.0 4.0 0.02 0.14 0.14 93 1013.0
20260502022851 39 55 2.0 5.0 0.03 0.14 0.14 93 1013.0
20260502022128 39 55 2.0 5.0 0.03 0.13 0.13 93 1013.0
20260502021629 39 55 3.0 6.0 0.03 0.13 0.13 93 1013.0
20260502021128 39 55 2.0 6.0 0.04 0.13 0.13 93 1013.0
20260502020629 39 55 2.0 5.0 0.04 0.13 0.13 93 1012.9
20260502020129 39 55 3.0 6.0 0.05 0.13 0.13 93 1012.9
20260502015628 39 55 3.0 6.0 0.05 0.13 0.13 93 1012.8
20260502015129 39 55 3.0 6.0 0.05 0.13 0.13 93 1012.9
20260502014628 39 55 3.0 7.0 0.04 0.12 0.12 93 1012.9
20260502013629 40 40 3.0 7.0 0.05 0.12 0.12 93 1012.8
20260502013128 40 38 2.0 5.0 0.05 0.12 0.11 93 1012.8
20260502012628 40 38 2.0 5.0 0.04 0.11 0.11 92 1013.2
20260502012129 40 38 3.0 6.0 0.04 0.10 0.10 92 1012.8
20260502011628 40 38 2.0 6.0 0.04 0.10 0.10 92 1012.8
20260502011129 40 38 2.0 4.0 0.03 0.09 0.09 92 1012.8
20260502010629 40 38 2.0 5.0 0.03 0.09 0.09 92 1012.6
20260502010129 40 38 2.0 5.0 0.02 0.08 0.08 92 1012.6
20260502005855 40 38 2.0 5.0 0.02 0.08 0.08 92 1012.6
20260502005129 40 38 2.0 5.0 0.03 0.08 0.08 92 1012.5
20260502004629 40 38 2.0 5.0 0.03 0.08 0.08 91 1012.5
20260502004129 40 38 3.0 9.0 0.03 0.08 0.07 91 1012.4
20260502003629 40 38 3.0 9.0 0.03 0.07 0.07 91 1012.5
20260502003355 40 38 3.0 8.0 0.03 0.07 0.07 91 1012.2
20260502002629 40 36 3.0 8.0 0.04 0.07 0.07 91 1012.2
20260502002128 41 40 3.0 6.0 0.03 0.06 0.06 91 1012.2
20260502001629 41 40 3.0 6.0 0.03 0.06 0.06 91 1012.1
20260502001130 41 42 3.0 8.0 0.03 0.06 0.06 90 1012.0
20260502000129 41 22 4.0 8.0 0.04 0.06 0.06 90 1012.0
20260501235630 41 24 4.0 8.0 0.04 0.06 0.06 89 1012.0
20260501235402 42 32 3.0 8.0 0.04 0.05 0.05 89 1012.0
20260501234628 42 34 3.0 6.0 0.04 0.05 0.05 89 1012.0
20260501234128 42 46 3.0 6.0 0.04 0.05 0.05 89 1012.0
20260501233630 43 51 3.0 9.0 0.03 0.04 0.04 88 1011.9
20260501233129 43 51 3.0 9.0 0.04 0.04 0.04 88 1011.9
20260501232629 44 300 2.0 5.0 0.03 0.03 0.03 88 1011.9
20260501232130 44 298 2.0 5.0 0.03 0.03 0.03 88 1011.7
20260501231629 45 292 2.0 4.0 0.03 0.03 0.03 88 1011.5
20260501231128 45 292 2.0 4.0 0.03 0.03 0.03 87 1011.5
20260501230629 45 292 1.0 4.0 0.02 0.02 0.02 87 1011.6
20260501230129 45 291 0.0 3.0 0.02 0.02 0.02 86 1011.6
20260501225630 46 291 1.0 3.0 0.02 0.02 0.02 86 1011.6
20260501225129 46 291 1.0 3.0 0.01 0.01 0.01 85 1011.6
20260501224351 46 291 2.0 4.0 0.01 0.01 0.01 84 1011.5
20260501223629 46 291 2.0 5.0 0.01 0.01 0.01 83 1011.6
20260501223129 46 291 3.0 5.0 0.00 0.00 0.00 83 1011.5
20260501222628 47 290 2.0 5.0 0.00 0.00 0.00 82 1011.6
20260501222129 47 288 2.0 3.0 0.00 0.00 0.00 81 1011.6
20260501221129 47 288 1.0 3.0 0.00 0.00 0.00 80 1011.6
20260501220853 47 288 2.0 4.0 0.00 0.00 0.00 79 1011.7
20260501220129 47 288 2.0 5.0 0.00 0.00 0.00 79 1011.6
20260501215629 47 288 3.0 6.0 0.00 0.00 0.00 78 1011.6
20260501215129 48 287 2.0 6.0 0.00 0.00 0.00 77 1011.6
20260501214849 48 283 3.0 6.0 0.00 0.00 0.00 76 1011.5
20260501214129 48 282 2.0 7.0 0.00 0.00 0.00 76 1011.5
20260501213630 48 282 2.0 7.0 0.00 0.00 0.00 76 1011.5
20260501213129 48 293 2.0 5.0 0.00 0.00 0.00 75 1011.4
20260501212853 48 292 2.0 5.0 0.00 0.00 0.00 74 1011.3
20260501211629 49 290 2.0 5.0 0.00 0.00 0.00 73 1011.4
20260501211129 49 268 2.0 7.0 0.00 0.00 0.00 73 1011.4
20260501210629 49 269 2.0 7.0 0.00 0.00 0.00 72 1011.4
20260501210357 49 266 2.0 6.0 0.00 0.00 0.00 72 1011.3
20260501205630 49 271 3.0 7.0 0.00 0.00 0.00 72 1011.3
20260501205354 50 237 3.0 7.0 0.00 0.00 0.00 72 1011.2
20260501204629 50 306 3.0 5.0 0.00 0.00 0.00 72 1011.4
20260501204129 50 311 2.0 5.0 0.00 0.00 0.00 71 1011.3
20260501203630 50 292 2.0 6.0 0.00 0.00 0.00 72 1011.3
20260501203129 49 294 3.0 6.0 0.00 0.00 0.00 71 1011.4
20260501202629 49 249 3.0 5.0 0.00 0.00 0.00 71 1011.3
20260501202130 49 248 3.0 7.0 0.00 0.00 0.00 71 1011.4
20260501201629 49 248 2.0 7.0 0.00 0.00 0.00 72 1011.4
20260501201129 49 302 1.0 4.0 0.00 0.00 0.00 71 1011.4
20260501200629 49 350 3.0 6.0 0.00 0.00 0.00 70 1011.4
20260501200129 50 350 3.0 9.0 0.00 0.00 0.00 70 1011.5
20260501195629 50 217 3.0 10.0 0.00 0.00 0.00 70 1011.6
20260501195358 50 278 3.0 10.0 0.00 0.00 0.00 70 1011.6
20260501194629 50 244 2.0 9.0 0.00 0.00 0.00 69 1011.6
20260501194128 50 263 2.0 9.0 0.00 0.00 0.00 68 1011.6
20260501193629 50 284 3.0 10.0 0.00 0.00 0.00 67 1011.7
20260501193130 50 265 4.0 10.0 0.00 0.00 0.00 66 1011.7
20260501192629 50 222 3.0 8.0 0.00 0.00 0.00 66 1011.9
20260501192129 50 231 3.0 8.0 0.00 0.00 0.00 65 1011.9
20260501191629 50 273 2.0 6.0 0.00 0.00 0.00 64 1011.7
20260501191128 50 223 3.0 6.0 0.00 0.00 0.00 64 1011.7
20260501190630 51 242 3.0 9.0 0.00 0.00 0.00 64 1011.7